TimeCST,TemperatureF,Dew PointF,Humidity,Sea Level PressureIn,VisibilityMPH,Wind Direction,Wind SpeedMPH,Gust SpeedMPH,PrecipitationIn,Events,Conditions,WindDirDegrees,DateUTC
12:35 AM,32.0,28.4,87,30.01,10.0,East,3.5,-,N/A,,Overcast,80,2013-03-05 06:35:00
12:55 AM,32.0,28.4,87,30.00,10.0,East,4.6,-,N/A,,Overcast,80,2013-03-05 06:55:00
1:15 AM,32.0,28.4,87,29.99,10.0,East,5.8,-,N/A,,Overcast,90,2013-03-05 07:15:00
1:35 AM,32.0,28.4,87,29.99,10.0,East,8.1,-,N/A,,Overcast,90,2013-03-05 07:35:00
1:55 AM,32.0,28.4,87,29.97,10.0,East,6.9,-,N/A,,Overcast,80,2013-03-05 07:55:00
2:15 AM,32.0,28.4,87,29.97,10.0,East,4.6,-,N/A,,Overcast,80,2013-03-05 08:15:00
2:35 AM,32.0,28.4,87,29.96,10.0,East,5.8,-,N/A,,Overcast,80,2013-03-05 08:35:00
3:15 AM,32.0,28.4,87,29.94,10.0,ENE,3.5,-,N/A,,Overcast,70,2013-03-05 09:15:00
3:35 AM,32.0,26.6,80,29.94,10.0,ESE,5.8,-,N/A,,Overcast,110,2013-03-05 09:35:00
3:55 AM,32.0,26.6,80,29.94,10.0,East,4.6,-,N/A,,Overcast,100,2013-03-05 09:55:00
4:15 AM,32.0,26.6,80,29.93,10.0,East,5.8,-,N/A,,Overcast,100,2013-03-05 10:15:00
4:55 AM,32.0,26.6,80,29.92,10.0,ESE,5.8,-,N/A,,Overcast,110,2013-03-05 10:55:00
5:15 AM,32.0,24.8,75,29.91,10.0,ESE,6.9,-,N/A,,Overcast,120,2013-03-05 11:15:00
5:35 AM,32.0,24.8,75,29.92,10.0,ESE,9.2,16.1,N/A,,Overcast,110,2013-03-05 11:35:00
5:55 AM,32.0,23.0,69,29.91,10.0,East,10.4,17.3,N/A,,Overcast,100,2013-03-05 11:55:00
6:15 AM,32.0,23.0,69,29.91,10.0,ESE,8.1,-,N/A,,Overcast,110,2013-03-05 12:15:00
6:55 AM,32.0,23.0,69,29.91,10.0,ESE,11.5,16.1,N/A,,Overcast,120,2013-03-05 12:55:00
7:15 AM,32.0,26.6,80,29.90,4.0,East,8.1,-,N/A,Snow,Light Snow,100,2013-03-05 13:15:00
7:35 AM,32.0,26.6,80,29.89,5.0,ESE,9.2,17.3,N/A,Snow,Light Snow,110,2013-03-05 13:35:00
7:55 AM,32.0,26.6,80,29.89,7.0,ESE,8.1,17.3,N/A,,Overcast,110,2013-03-05 13:55:00
8:15 AM,32.0,26.6,80,29.89,3.0,East,9.2,16.1,N/A,Snow,Light Snow,100,2013-03-05 14:15:00
8:35 AM,32.0,28.4,87,29.88,4.0,ESE,9.2,-,N/A,Snow,Light Snow,110,2013-03-05 14:35:00
8:55 AM,32.0,28.4,87,29.88,4.0,ESE,9.2,-,N/A,Snow,Light Snow,120,2013-03-05 14:55:00
9:15 AM,32.0,26.6,80,29.87,10.0,ESE,9.2,17.3,N/A,,Overcast,120,2013-03-05 15:15:00
9:55 AM,32.0,26.6,80,29.87,2.0,East,6.9,17.3,N/A,Snow,Light Snow,100,2013-03-05 15:55:00
10:15 AM,32.0,26.6,80,29.86,2.5,ESE,6.9,-,N/A,Snow,Light Snow,110,2013-03-05 16:15:00
10:35 AM,32.0,28.4,87,29.85,1.0,East,6.9,-,N/A,Snow,Light Snow,100,2013-03-05 16:35:00
10:55 AM,32.0,28.4,87,29.84,1.2,East,6.9,-,N/A,Snow,Light Snow,100,2013-03-05 16:55:00
11:15 AM,32.0,28.4,87,29.83,1.8,East,8.1,-,N/A,Snow,Light Snow,90,2013-03-05 17:15:00
11:35 AM,32.0,28.4,87,29.82,1.2,East,6.9,-,N/A,Snow,Light Snow,80,2013-03-05 17:35:00
11:55 AM,32.0,28.4,87,29.82,2.0,ESE,9.2,-,N/A,Snow,Light Snow,110,2013-03-05 17:55:00
12:15 PM,32.0,28.4,87,29.81,1.2,East,4.6,-,N/A,Snow,Light Snow,80,2013-03-05 18:15:00
12:55 PM,32.0,28.4,87,29.80,1.5,East,5.8,-,N/A,Snow,Light Snow,80,2013-03-05 18:55:00
1:15 PM,32.0,30.2,93,29.79,0.8,East,4.6,-,N/A,Snow,Light Snow,80,2013-03-05 19:15:00
1:35 PM,32.0,30.2,93,29.79,1.0,ENE,4.6,-,N/A,Snow,Light Snow,60,2013-03-05 19:35:00
1:55 PM,30.2,28.4,93,29.78,0.5,ENE,5.8,-,N/A,Snow,Snow,60,2013-03-05 19:55:00
2:15 PM,30.2,28.4,93,29.78,0.5,ENE,5.8,-,N/A,Snow,Snow,60,2013-03-05 20:15:00
2:35 PM,30.2,30.2,100,29.77,0.5,ENE,6.9,-,N/A,Snow,Snow,60,2013-03-05 20:35:00
2:55 PM,30.2,28.4,93,29.77,0.5,NE,8.1,-,N/A,Snow,Light Snow,50,2013-03-05 20:55:00
3:15 PM,30.2,28.4,93,29.77,0.5,NE,4.6,-,N/A,Snow,Snow,50,2013-03-05 21:15:00
3:35 PM,30.2,28.4,93,29.77,0.5,NE,6.9,-,N/A,Snow,Light Snow,50,2013-03-05 21:35:00
3:55 PM,30.2,28.4,93,29.77,0.5,NE,6.9,-,N/A,Snow,Light Snow,50,2013-03-05 21:55:00
4:15 PM,30.2,28.4,93,29.78,0.5,NE,9.2,-,N/A,Snow,Light Snow,40,2013-03-05 22:15:00
4:35 PM,28.4,28.4,100,29.78,0.2,NE,8.1,-,N/A,Snow,Snow,50,2013-03-05 22:35:00
4:55 PM,28.4,28.4,100,29.79,0.5,ENE,6.9,-,N/A,Snow,Light Snow,60,2013-03-05 22:55:00
5:15 PM,28.4,28.4,100,29.79,0.2,NE,6.9,-,N/A,Snow,Snow,50,2013-03-05 23:15:00
5:35 PM,28.4,28.4,100,29.80,0.5,NNE,4.6,-,N/A,Snow,Snow,20,2013-03-05 23:35:00
5:55 PM,28.4,28.4,100,29.81,1.0,Calm,Calm,-,N/A,Snow,Snow,0,2013-03-05 23:55:00
6:15 PM,30.2,28.4,93,29.82,0.8,North,5.8,-,N/A,Snow,Snow,360,2013-03-06 00:15:00
6:35 PM,30.2,28.4,93,29.82,1.2,North,5.8,-,N/A,Snow,Light Snow,10,2013-03-06 00:35:00
6:55 PM,30.2,28.4,93,29.82,1.2,North,5.8,-,N/A,Snow,Light Snow,360,2013-03-06 00:55:00
7:15 PM,30.2,30.2,100,29.82,1.8,North,8.1,16.1,N/A,Snow,Light Snow,10,2013-03-06 01:15:00
7:35 PM,30.2,28.4,93,29.82,1.5,North,10.4,17.3,N/A,Snow,Light Snow,10,2013-03-06 01:35:00
7:55 PM,30.2,28.4,93,29.83,1.2,North,12.7,17.3,N/A,Snow,Light Snow,10,2013-03-06 01:55:00
8:15 PM,30.2,28.4,93,29.84,1.2,North,12.7,20.7,N/A,Snow,Light Snow,10,2013-03-06 02:15:00
8:35 PM,30.2,28.4,93,29.84,1.5,North,15.0,20.7,N/A,Snow,Light Snow,10,2013-03-06 02:35:00
8:55 PM,30.2,28.4,93,29.85,1.2,NNE,13.8,21.9,N/A,Snow,Light Snow,20,2013-03-06 02:55:00
9:15 PM,30.2,28.4,93,29.86,1.0,North,16.1,27.6,N/A,Snow,Light Snow,10,2013-03-06 03:15:00
9:35 PM,30.2,28.4,93,29.87,1.0,North,13.8,20.7,N/A,Snow,Light Snow,10,2013-03-06 03:35:00
9:55 PM,30.2,28.4,93,29.88,1.2,North,17.3,25.3,N/A,Snow,Light Snow,10,2013-03-06 03:55:00
10:15 PM,30.2,28.4,93,29.89,1.5,NNE,10.4,17.3,N/A,Snow,Light Snow,20,2013-03-06 04:15:00
10:35 PM,30.2,28.4,93,29.90,1.8,North,10.4,19.6,N/A,Snow,Light Snow,10,2013-03-06 04:35:00
10:55 PM,30.2,26.6,86,29.91,3.0,NNE,13.8,21.9,N/A,Snow,Light Snow,20,2013-03-06 04:55:00
11:15 PM,28.4,26.6,93,29.91,2.5,North,12.7,16.1,N/A,Snow,Light Snow,10,2013-03-06 05:15:00
11:35 PM,28.4,26.6,93,29.92,5.0,North,13.8,18.4,N/A,Snow,Light Snow,10,2013-03-06 05:35:00
11:55 PM,28.4,26.6,93,29.93,7.0,North,10.4,-,N/A,Snow,Light Snow,10,2013-03-06 05:55:00